Flag for U.S.A. Weather past 2 weeks in Pomona, California, U.S.A.

Now
57 °F

Passing clouds.


Feels Like: 57 °F
Forecast: 57 / 90 °F
Wind: No wind

Location: Chino Airport

Current Time: Oct 23, 2014 at 8:51:33 AM

Latest Report: Oct 23, 2014 at 7:53 AM


Visibility: 7 mi

Pressure: 29.99 "Hg

Humidity: 83%

Dew point: 52 °F

Location of PomonaLocation

Historic Weather in Pomona — Graph

°F

Pomona temperature yesterday

Maximum temperature yesterday: 90 °F (at 2:53 PM)
Minimum temperature yesterday: 53 °F (at 4:53 AM)
Average temperature yesterday: 68 °F

Past Weeks' High & Low Weather Summary

 TemperatureHumidityPressure
High93 °F (Oct 8, 1:53 PM)100% (Oct 11, 6:53 AM)30.04 "Hg (Oct 11, 6:53 AM)
Low53 °F (Oct 22, 4:53 AM)15% (Oct 8, 1:53 PM)29.78 "Hg (Oct 8, 4:53 PM)
Average68 °F71%29.92 "Hg
* Reported Oct 8 6:53 AM — Oct 23 6:53 AM, Pomona, Weather by CustomWeather, © 2014

Note: Actual official high and low records may vary slightly from our data, if they occured in-between our weather recording intervals... More about our weather records

Advertising

Pomona weather history for previous 24 hours

 ConditionsComfort  
Time TempWeatherWind HumidityBarometerVisibility
6:53 AM
Oct 23
54 °FPassing clouds.3 mph90%29.97 "Hg10 mi
5:53 AM56 °FFog.No wind90%29.96 "Hg4 mi
4:53 AM56 °FFog.No wind87%29.95 "Hg6 mi
3:53 AM56 °FFog.No wind90%29.94 "Hg3 mi
2:53 AM56 °FFog.No wind93%29.96 "Hg3 mi
1:53 AM59 °FFog.No wind90%29.97 "Hg3 mi
12:53 AM59 °FFog.No wind90%29.97 "Hg4 mi
11:53 PM
Oct 22
60 °FFog.No wind86%29.98 "Hg4 mi
10:53 PM62 °FClear.No wind80%29.97 "Hg4 mi
9:53 PM66 °FClear.No wind75%29.97 "Hg6 mi
8:53 PM68 °FClear.3 mph70%29.95 "Hg7 mi
7:53 PM69 °FClear.6 mph61%29.94 "Hg10 mi
6:53 PM72 °FSunny.6 mph53%29.91 "Hg10 mi
5:53 PM79 °FScattered clouds.9 mph36%29.89 "Hg10 mi
4:53 PM85 °FPartly sunny.12 mph34%29.88 "Hg10 mi
3:53 PM88 °FPartly sunny.10 mph27%29.88 "Hg10 mi
2:53 PM90 °FScattered clouds.6 mph15%29.87 "Hg9 mi
1:53 PM87 °FScattered clouds.No wind21%29.89 "Hg8 mi
12:53 PM83 °FScattered clouds.No wind28%29.91 "Hg8 mi
11:53 AM79 °FScattered clouds.No wind38%29.93 "Hg8 mi
10:53 AM75 °FScattered clouds.3 mph45%29.96 "Hg7 mi
9:53 AM68 °FPassing clouds.3 mph63%29.97 "Hg7 mi
8:53 AM63 °FSunny.N/A78%29.97 "Hg7 mi
Weather by CustomWeather, © 2014

See weather overviewHow to use our weather pages